Location: Beneden-Haastrecht
(52.0012°N, 4.7557°E)
Time: 11:51:30
(UTC+00:00)

Aureole 3 - Pass Details

Date: 24 October 2020
Orbit: 382 x 1232 km, 82.5° (Epoch: 25 November)

Event Time Altitude Azimuth Distance (km) Brightness Sun altitude
Rises 17:53:06 0° 173° (S) 2,480 6.6 -13.8°
Reaches altitude 10° 17:55:20 10° 166° (SSE) 1,529 5.5 -14.1°
Maximum altitude 17:58:22 39° 96° (E) 618 3.1 -14.6°
Enters shadow 17:59:52 22° 39° (NE) 914 4.1 -14.8°
